Regional Weather Roundup
Issued by NWS

Home | Current Version | Previous Version | Text Only | Print | Product List | Glossary Off
Versions: 1 2 3 4 5 6 7 8 9 10 11 12 13 14 15 16 17 18 19 20 21 22 23 24 25 26 27 28 29 30 31 32 33 34 35 36 37 38 39 40 41 42 43 44 45 46 47 48 49 50

000
ASUS43 KOAX 271602
RWRNE

WEATHER ROUNDUP FOR NEBRASKA
NATIONAL WEATHER SERVICE OMAHA NE
1100 AM CDT TUE JUN 27 2017

NOTES: SATELLITE DATA IS BEING USED TO AUGMENT CLOUD COVER ABOVE
       12000 FEET.
       "FAIR" INDICATES FEW OR NO CLOUDS BELOW 12,000 FEET WITH NO
       SIGNIFICANT WEATHER AND/OR OBSTRUCTIONS TO VISIBILITY.

  * THESE STATIONS DO NOT REPORT WEATHER SUCH AS RAIN...SNOW OR FOG.

NEZ001>004-019>022-054>056-271700-
NEBRASKA PANHANDLE

CITY           SKY/WX    TMP DP  RH WIND       PRES   REMARKS
SCOTTSBLUFF    SUNNY     77  58  51 S13       29.82F
ALLIANCE       SUNNY     74  57  55 S17G29    29.85F
CHADRON        SUNNY     76  57  51 S20       29.75F
GORDON         FAIR      74  58  56 S20G29    29.82F
KIMBALL        SUNNY     75  57  53 S15       29.89F
SIDNEY         SUNNY     73  58  59 S13G20    29.91F
$$

NEZ057>060-069>072-079>082-271700-
SOUTHWEST NEBRASKA

CITY           SKY/WX    TMP DP  RH WIND       PRES   REMARKS
NORTH PLATTE   CLOUDY    69  60  73 SE14      29.92F
IMPERIAL       CLOUDY    65  59  81 S15       29.93F
LEXINGTON      MOSUNNY   74  60  62 SE18      29.95F
MCCOOK         CLOUDY    65  62  90 SE14      29.93F
OGALLALA       CLOUDY    71  60  67 S10       29.92F
$$

NEZ005>010-023>029-035>040-094-271700-
NORTH CENTRAL NEBRASKA

CITY           SKY/WX    TMP DP  RH WIND       PRES   REMARKS
VALENTINE      SUNNY     77  54  44 S26G38    29.85F
AINSWORTH      SUNNY     73  57  58 S25       29.90F
BROKEN BOW     SUNNY     72  57  59 S17G28    29.94F
O`NEILL        SUNNY     72  54  52 S18G25    29.96F
ORD            SUNNY     72  51  47 SE16G25   29.95F
THEDFORD       MOSUNNY   73  58  60 SE23      29.91F
$$

NEZ041-046>049-061>064-073>077-083>087-271700-
SOUTH CENTRAL NEBRASKA

CITY           SKY/WX    TMP DP  RH WIND       PRES   REMARKS
GRAND ISLAND   MOSUNNY   72  58  61 SE18G26   29.99F
AURORA         SUNNY     72  57  59 SE18G25   29.99F
HASTINGS       SUNNY     71  58  63 SE17G29   29.99F
HEBRON         MOSUNNY   73  61  68 SE14      30.01F
HOLDREGE       SUNNY     72  59  63 SE18G24   29.96F
KEARNEY *      SUNNY     72  57  60 SE20      29.97F
YORK           SUNNY     72  57  60 S16G23    30.01F
$$

NEZ011>018-030>034-042>045-271700-
NORTHEAST NEBRASKA

CITY           SKY/WX    TMP DP  RH WIND       PRES   REMARKS
NORFOLK        SUNNY     71  53  52 SE21G28   29.99F
ALBION         SUNNY     72  52  50 S15G26    29.99F
BLAIR          SUNNY     72  55  56 S13       30.05F
FREMONT        MOSUNNY   71  56  59 SE13      30.03F
TEKAMAH        SUNNY     74  53  48 S14G24    30.04F
WAYNE          SUNNY     71  52  50 S17G28    30.02F
$$

NEZ050>053-065>068-078-088>093-271700-
SOUTHEAST NEBRASKA

CITY           SKY/WX    TMP DP  RH WIND       PRES   REMARKS
LINCOLN        SUNNY     72  58  61 SE18      30.03F
OMAHA EPPLEY   MOSUNNY   72  55  55 S17       30.05F
BEATRICE       SUNNY     70  61  73 SE16      30.03F
FALLS CITY     SUNNY     71  59  65 SE13      30.06F
NEBRASKA CITY  SUNNY     69  59  70 SE14      30.07F
PLATTSMOUTH    SUNNY     71  58  64 SE14      30.06F
$$

NEZ044-045-051>053-067-271700-
OMAHA AREA

CITY           SKY/WX    TMP DP  RH WIND       PRES   REMARKS
OMAHA EPPLEY   MOSUNNY   72  55  55 S17       30.05F
BLAIR          SUNNY     72  55  56 S13       30.05F
FREMONT        MOSUNNY   71  56  59 SE13      30.03F
MILLARD        SUNNY     73  60  64 SE12      30.05F
OFFUTT AFB     SUNNY     72  59  62 SE14      30.05F
PLATTSMOUTH    SUNNY     71  58  64 SE14      30.06F
WAHOO          CLOUDY    73  54  52 S18G24    30.03F
$$




USA.gov is the U.S. government's official web portal to all federal, state and local government web resources and services.